Вернуться в каталог

DELTA 1 DEB

АктивенPO
NORAD 26832·DEBRIS·🇺🇸 United States

Запущен Jun 12, 1975 с Vandenberg Space Force Base

Loading…

Ближайшие Пролёты (ближайшие 24 часа)

TLE

СвежийSource: Space-Track

Эпоха: Sep 11, 2026, 19:47 UTC

1 26832U 75052KL  26254.82483587  .00000125  00000-0  78203-3 0  9995
2 26832  99.6327 206.5352 0621985  35.8639 354.3651 12.21546532590762

Отслеживайте DELTA 1 DEB в реальном времени с AllMySat

Download on the App Store